Location: Gellin
(53.4498°N, 14.3207°E)
Time: 23:22:59
(UTC+00:00)

SPOT 1/Viking Rocket - Pass Details

Date: 03 March 2021
Orbit: 778 x 793 km, 98.4° (Epoch: 12 April)

Event Time Altitude Azimuth Distance (km) Brightness Sun altitude
Exits shadow 18:49:17 29° 67° (ENE) 1,413 4.4 -19.2°
Maximum altitude 18:49:41 29° 59° (ENE) 1,403 4.5 -19.3°
Drops below altitude 10° 18:54:06 10° 1° (N) 2,355 6.2 -19.9°
Sets 18:56:41 0° 350° (N) 3,290 7.1 -20.3°
